| time (UTC) | temp F | wind direction | speed MPH | gust MPH | rain 1hr in | rain 24hr in | rain mn in | humidity % | barometer mb |
| 20260506023215 | 51 | 315 | 6.0 | 7.0 | 0.00 | 0.00 | 0.00 | 78 | 1009.3 |
| 20260506022215 | 51 | 315 | 5.0 | 7.0 | 0.00 | 0.00 | 0.00 | 79 | 1009.4 |
| 20260506021217 | 51 | 315 | 7.0 | 10.0 | 0.00 | 0.00 | 0.00 | 79 | 1009.4 |
| 20260506020217 | 50 | 338 | 4.0 | 7.0 | 0.00 | 0.00 | 0.00 | 80 | 1009.5 |
| 20260506015218 | 50 | 293 | 4.0 | 8.0 | 0.00 | 0.00 | 0.00 | 79 | 1009.5 |
| 20260506014218 | 50 | 315 | 7.0 | 9.0 | 0.00 | 0.00 | 0.00 | 78 | 1009.6 |
| 20260506013217 | 51 | 315 | 6.0 | 10.0 | 0.00 | 0.00 | 0.00 | 78 | 1009.6 |
| 20260506012217 | 51 | 315 | 3.0 | 6.0 | 0.00 | 0.00 | 0.00 | 78 | 1009.5 |
| 20260506011218 | 51 | 338 | 7.0 | 11.0 | 0.00 | 0.00 | 0.00 | 79 | 1009.6 |
| 20260506010217 | 51 | 315 | 9.0 | 14.0 | 0.00 | 0.00 | 0.00 | 79 | 1009.7 |
| 20260506005217 | 50 | 315 | 6.0 | 10.0 | 0.00 | 0.00 | 0.00 | 78 | 1009.6 |
| 20260506004217 | 50 | 315 | 5.0 | 7.0 | 0.00 | 0.00 | 0.00 | 78 | 1009.7 |
| 20260506003217 | 50 | 315 | 4.0 | 7.0 | 0.00 | 0.00 | 0.00 | 78 | 1009.9 |
| 20260506002217 | 50 | 315 | 4.0 | 7.0 | 0.00 | 0.00 | 0.00 | 78 | 1009.9 |
| 20260506001217 | 50 | 315 | 5.0 | 7.0 | 0.00 | 0.00 | 0.00 | 78 | 1010.0 |
| 20260506000219 | 50 | 315 | 5.0 | 9.0 | 0.00 | 0.00 | 0.00 | 78 | 1010.1 |
| 20260505235217 | 50 | 315 | 5.0 | 7.0 | 0.00 | 0.00 | 0.00 | 77 | 1010.3 |
| 20260505234217 | 50 | 338 | 6.0 | 8.0 | 0.00 | 0.00 | 0.00 | 77 | 1010.2 |
| 20260505233217 | 50 | 315 | 8.0 | 10.0 | 0.00 | 0.00 | 0.00 | 76 | 1010.3 |
| 20260505232217 | 50 | 315 | 7.0 | 11.0 | 0.00 | 0.00 | 0.00 | 76 | 1010.4 |
| 20260505231217 | 50 | 315 | 4.0 | 6.0 | 0.00 | 0.00 | 0.00 | 76 | 1010.4 |
| 20260505230217 | 50 | 293 | 3.0 | 5.0 | 0.00 | 0.00 | 0.00 | 76 | 1010.5 |
| 20260505225217 | 50 | 0 | 6.0 | 9.0 | 0.00 | 0.00 | 0.00 | 75 | 1010.6 |
| 20260505224217 | 50 | 315 | 6.0 | 9.0 | 0.00 | 0.00 | 0.00 | 75 | 1010.5 |
| 20260505223217 | 50 | 315 | 7.0 | 9.0 | 0.00 | 0.00 | 0.00 | 74 | 1010.5 |
| 20260505222217 | 51 | 338 | 4.0 | 8.0 | 0.00 | 0.00 | 0.00 | 74 | 1010.6 |
| 20260505221217 | 51 | 293 | 5.0 | 7.0 | 0.00 | 0.00 | 0.00 | 74 | 1010.7 |
| 20260505220217 | 51 | 315 | 6.0 | 9.0 | 0.00 | 0.00 | 0.00 | 73 | 1010.8 |
| 20260505215216 | 51 | 315 | 6.0 | 10.0 | 0.00 | 0.00 | 0.00 | 73 | 1010.9 |
| 20260505214216 | 51 | 315 | 5.0 | 8.0 | 0.00 | 0.00 | 0.00 | 73 | 1010.9 |
| 20260505213217 | 51 | 315 | 3.0 | 5.0 | 0.00 | 0.00 | 0.00 | 73 | 1010.9 |
| 20260505212216 | 52 | 315 | 3.0 | 6.0 | 0.00 | 0.00 | 0.00 | 73 | 1010.9 |
| 20260505211216 | 52 | 315 | 4.0 | 6.0 | 0.00 | 0.00 | 0.00 | 73 | 1010.9 |
| 20260505210216 | 52 | 315 | 5.0 | 7.0 | 0.00 | 0.00 | 0.00 | 73 | 1011.0 |
| 20260505205216 | 52 | 338 | 6.0 | 11.0 | 0.00 | 0.00 | 0.00 | 73 | 1011.1 |
| 20260505204217 | 52 | 338 | 5.0 | 8.0 | 0.00 | 0.00 | 0.00 | 73 | 1011.1 |
| 20260505203216 | 52 | 338 | 3.0 | 7.0 | 0.00 | 0.00 | 0.00 | 73 | 1011.0 |
| 20260505202216 | 52 | 315 | 8.0 | 11.0 | 0.00 | 0.00 | 0.00 | 72 | 1011.1 |
| 20260505201216 | 53 | 315 | 7.0 | 8.0 | 0.00 | 0.00 | 0.00 | 72 | 1010.9 |
| 20260505200216 | 53 | 315 | 5.0 | 8.0 | 0.00 | 0.00 | 0.00 | 72 | 1010.9 |
| 20260505195216 | 53 | 23 | 6.0 | 11.0 | 0.00 | 0.00 | 0.00 | 72 | 1010.8 |
| 20260505194216 | 54 | 315 | 8.0 | 11.0 | 0.00 | 0.00 | 0.00 | 72 | 1010.7 |
| 20260505193216 | 54 | 315 | 8.0 | 10.0 | 0.00 | 0.00 | 0.00 | 72 | 1010.5 |
| 20260505192216 | 54 | 315 | 6.0 | 10.0 | 0.00 | 0.00 | 0.00 | 73 | 1010.4 |
| 20260505191216 | 54 | 293 | 9.0 | 12.0 | 0.00 | 0.00 | 0.00 | 73 | 1010.3 |
| 20260505190216 | 55 | 315 | 6.0 | 9.0 | 0.00 | 0.00 | 0.00 | 73 | 1010.2 |
| 20260505185216 | 55 | 293 | 9.0 | 15.0 | 0.00 | 0.00 | 0.00 | 73 | 1010.2 |
| 20260505184215 | 55 | 315 | 9.0 | 14.0 | 0.00 | 0.00 | 0.00 | 73 | 1010.2 |
| 20260505183216 | 55 | 315 | 8.0 | 13.0 | 0.00 | 0.00 | 0.00 | 73 | 1010.1 |
| 20260505182215 | 55 | 315 | 9.0 | 15.0 | 0.00 | 0.00 | 0.00 | 72 | 1010.0 |
| 20260505181216 | 56 | 315 | 9.0 | 14.0 | 0.00 | 0.00 | 0.00 | 72 | 1010.0 |
| 20260505180216 | 56 | 338 | 9.0 | 15.0 | 0.00 | 0.00 | 0.00 | 71 | 1010.1 |
| 20260505175215 | 56 | 315 | 7.0 | 12.0 | 0.00 | 0.00 | 0.00 | 71 | 1010.1 |
| 20260505174215 | 56 | 315 | 8.0 | 16.0 | 0.00 | 0.00 | 0.00 | 71 | 1010.1 |
| 20260505173215 | 57 | 293 | 9.0 | 16.0 | 0.00 | 0.00 | 0.00 | 70 | 1010.1 |
| 20260505172216 | 57 | 338 | 11.0 | 19.0 | 0.00 | 0.00 | 0.00 | 70 | 1010.1 |
| 20260505171215 | 57 | 315 | 11.0 | 18.0 | 0.00 | 0.00 | 0.00 | 70 | 1010.2 |
| 20260505170215 | 57 | 293 | 9.0 | 15.0 | 0.00 | 0.00 | 0.00 | 70 | 1010.2 |
| 20260505165215 | 57 | 315 | 7.0 | 13.0 | 0.00 | 0.00 | 0.00 | 70 | 1010.2 |
| 20260505164215 | 57 | 315 | 10.0 | 18.0 | 0.00 | 0.00 | 0.00 | 70 | 1010.3 |
| 20260505163215 | 57 | 315 | 13.0 | 19.0 | 0.00 | 0.00 | 0.00 | 68 | 1010.3 |
| 20260505162215 | 58 | 315 | 8.0 | 13.0 | 0.00 | 0.00 | 0.00 | 68 | 1010.2 |
| 20260505161216 | 58 | 315 | 7.0 | 11.0 | 0.00 | 0.00 | 0.00 | 68 | 1010.2 |
| 20260505160215 | 58 | 315 | 10.0 | 14.0 | 0.00 | 0.00 | 0.00 | 68 | 1010.2 |
| 20260505153215 | 59 | 315 | 9.0 | 15.0 | 0.00 | 0.00 | 0.00 | 66 | 1010.2 |
| 20260505152215 | 59 | 315 | 9.0 | 14.0 | 0.00 | 0.00 | 0.00 | 66 | 1010.4 |
| 20260505151215 | 59 | 315 | 11.0 | 19.0 | 0.00 | 0.00 | 0.00 | 64 | 1010.4 |
| 20260505150215 | 59 | 293 | 6.0 | 9.0 | 0.00 | 0.00 | 0.00 | 65 | 1010.3 |
| 20260505140215 | 61 | 315 | 8.0 | 12.0 | 0.00 | 0.00 | 0.00 | 64 | 1010.5 |
| 20260505130217 | 61 | 315 | 7.0 | 10.0 | 0.00 | 0.00 | 0.00 | 63 | 1010.7 |
| 20260505124217 | 62 | 315 | 12.0 | 20.0 | 0.00 | 0.00 | 0.00 | 62 | 1010.8 |
| 20260505123217 | 62 | 338 | 5.0 | 7.0 | 0.00 | 0.00 | 0.00 | 63 | 1010.8 |
| 20260505122217 | 62 | 293 | 10.0 | 15.0 | 0.00 | 0.00 | 0.00 | 62 | 1010.9 |
| 20260505121217 | 62 | 315 | 7.0 | 18.0 | 0.00 | 0.00 | 0.00 | 62 | 1010.7 |
| 20260505120217 | 62 | 315 | 10.0 | 14.0 | 0.00 | 0.00 | 0.00 | 62 | 1010.8 |
| 20260505115217 | 62 | 315 | 6.0 | 11.0 | 0.00 | 0.00 | 0.00 | 63 | 1010.7 |
| 20260505114217 | 62 | 315 | 8.0 | 13.0 | 0.00 | 0.00 | 0.00 | 63 | 1011.0 |
| 20260505113217 | 61 | 315 | 13.0 | 20.0 | 0.00 | 0.00 | 0.00 | 62 | 1011.0 |
| 20260505112217 | 61 | 315 | 7.0 | 11.0 | 0.00 | 0.00 | 0.00 | 64 | 1011.0 |
| 20260505111217 | 62 | 315 | 8.0 | 13.0 | 0.00 | 0.00 | 0.00 | 62 | 1011.1 |
| 20260505110217 | 63 | 315 | 8.0 | 15.0 | 0.00 | 0.00 | 0.00 | 60 | 1011.3 |
| 20260505102217 | 62 | 338 | 8.0 | 12.0 | 0.00 | 0.00 | 0.00 | 58 | 1011.4 |
| 20260505101217 | 61 | 293 | 9.0 | 12.0 | 0.00 | 0.00 | 0.00 | 58 | 1011.5 |
| 20260505100216 | 60 | 315 | 7.0 | 10.0 | 0.00 | 0.00 | 0.00 | 58 | 1011.6 |
| 20260505095217 | 60 | 315 | 7.0 | 11.0 | 0.00 | 0.00 | 0.00 | 59 | 1011.6 |
| 20260505094216 | 60 | 315 | 6.0 | 12.0 | 0.00 | 0.00 | 0.00 | 60 | 1011.6 |
| 20260505093216 | 60 | 315 | 10.0 | 15.0 | 0.00 | 0.00 | 0.00 | 58 | 1011.7 |
| 20260505092216 | 60 | 315 | 6.0 | 9.0 | 0.00 | 0.00 | 0.00 | 61 | 1011.6 |
| 20260505091217 | 59 | 315 | 7.0 | 9.0 | 0.00 | 0.00 | 0.00 | 63 | 1011.7 |
| 20260505090216 | 59 | 338 | 5.0 | 9.0 | 0.00 | 0.00 | 0.00 | 65 | 1011.7 |
| 20260505085217 | 58 | 315 | 8.0 | 16.0 | 0.00 | 0.00 | 0.00 | 64 | 1011.7 |
| 20260505084216 | 58 | 293 | 7.0 | 11.0 | 0.00 | 0.00 | 0.00 | 65 | 1011.7 |
| 20260505083216 | 57 | 338 | 9.0 | 13.0 | 0.00 | 0.00 | 0.00 | 66 | 1011.8 |
| 20260505082216 | 57 | 0 | 9.0 | 14.0 | 0.00 | 0.00 | 0.00 | 66 | 1011.8 |
| 20260505081217 | 57 | 0 | 6.0 | 10.0 | 0.00 | 0.00 | 0.00 | 68 | 1011.7 |
| 20260505080217 | 56 | 315 | 8.0 | 14.0 | 0.00 | 0.00 | 0.00 | 70 | 1011.6 |
| 20260505075216 | 56 | 315 | 7.0 | 11.0 | 0.00 | 0.00 | 0.00 | 71 | 1011.6 |
| 20260505074216 | 55 | 0 | 6.0 | 12.0 | 0.00 | 0.00 | 0.00 | 74 | 1011.7 |
| 20260505073216 | 54 | 338 | 4.0 | 7.0 | 0.00 | 0.00 | 0.00 | 74 | 1011.8 |
| 20260505072216 | 54 | 315 | 7.0 | 10.0 | 0.00 | 0.00 | 0.00 | 75 | 1011.9 |
| 20260505071217 | 54 | 338 | 7.0 | 11.0 | 0.00 | 0.00 | 0.00 | 77 | 1012.1 |
| 20260505070216 | 54 | 315 | 6.0 | 9.0 | 0.00 | 0.00 | 0.00 | 78 | 1012.0 |
| 20260505065217 | 53 | 0 | 6.0 | 9.0 | 0.00 | 0.00 | 0.00 | 79 | 1012.1 |
| 20260505064216 | 53 | 0 | 4.0 | 7.0 | 0.00 | 0.00 | 0.00 | 81 | 1012.2 |
| 20260505063216 | 53 | 0 | 5.0 | 7.0 | 0.00 | 0.00 | 0.00 | 82 | 1012.2 |
| 20260505062216 | 52 | 338 | 4.0 | 7.0 | 0.00 | 0.00 | 0.00 | 83 | 1012.3 |
| 20260505061216 | 52 | 315 | 3.0 | 6.0 | 0.00 | 0.00 | 0.00 | 83 | 1012.3 |
| 20260505060216 | 52 | 0 | 4.0 | 6.0 | 0.00 | 0.00 | 0.00 | 83 | 1012.3 |
| 20260505055216 | 52 | 293 | 7.0 | 12.0 | 0.00 | 0.00 | 0.00 | 83 | 1012.3 |
| 20260505054216 | 52 | 293 | 4.0 | 9.0 | 0.00 | 0.00 | 0.00 | 84 | 1012.3 |
| 20260505053216 | 52 | 23 | 4.0 | 6.0 | 0.00 | 0.00 | 0.00 | 84 | 1012.3 |
| 20260505052216 | 52 | 338 | 3.0 | 5.0 | 0.00 | 0.00 | 0.00 | 84 | 1012.2 |
| 20260505051216 | 52 | 315 | 5.0 | 8.0 | 0.00 | 0.00 | 0.00 | 84 | 1012.1 |
| 20260505050216 | 52 | 293 | 5.0 | 6.0 | 0.00 | 0.00 | 0.00 | 84 | 1012.2 |
| 20260505041216 | 52 | 315 | 5.0 | 6.0 | 0.00 | 0.00 | 0.00 | 84 | 1011.9 |
| 20260505040216 | 52 | 315 | 6.0 | 10.0 | 0.00 | 0.00 | 0.00 | 84 | 1012.0 |
| 20260505035216 | 52 | 315 | 5.0 | 7.0 | 0.00 | 0.00 | 0.00 | 84 | 1012.1 |
| 20260505034216 | 52 | 315 | 7.0 | 10.0 | 0.00 | 0.00 | 0.00 | 84 | 1012.1 |
| 20260505033216 | 52 | 315 | 4.0 | 7.0 | 0.00 | 0.00 | 0.00 | 84 | 1011.9 |
| 20260505032216 | 52 | 315 | 5.0 | 6.0 | 0.00 | 0.00 | 0.00 | 84 | 1012.1 |
| 20260505031216 | 52 | 315 | 2.0 | 7.0 | 0.00 | 0.00 | 0.00 | 84 | 1012.1 |
| 20260505030216 | 52 | 315 | 4.0 | 6.0 | 0.00 | 0.00 | 0.00 | 84 | 1012.1 |
| 20260505025216 | 52 | 0 | 4.0 | 10.0 | 0.00 | 0.00 | 0.00 | 84 | 1012.2 |
| 20260505024216 | 53 | 338 | 4.0 | 6.0 | 0.00 | 0.00 | 0.00 | 84 | 1012.2 |